This is the latest recevied weather packets stored in our database for station/object KB4MOX. If no packets are shown the sender has not sent any weather packets the latest 10 day(s).
| Time | Temp. | Humidity | Pressure | Rain* | Wind** | Luminosity | Snow |
|---|---|---|---|---|---|---|---|
| 1787510075 | 35° C | 42% | 1014.5 hPa | 0 mm | - | 752 W/m² | - |
| 1787509771 | 34.44° C | 41% | 1014.4 hPa | 0 mm | - | 755 W/m² | - |
| 1787509468 | 34.44° C | 41% | 1014.5 hPa | 0 mm | - | 755 W/m² | - |
| 1787509164 | 34.44° C | 44% | 1014.6 hPa | 0 mm | - | 754 W/m² | - |
| 1787508858 | 34.44° C | 44% | 1014.5 hPa | 0 mm | - | 758 W/m² | - |
| 1787508554 | 35° C | 43% | 1014.6 hPa | 0 mm | - | 758 W/m² | - |
| 1787508250 | 34.44° C | 43% | 1014.8 hPa | 0 mm | - | 763 W/m² | - |
| 1787507945 | 33.89° C | 46% | 1015 hPa | 0 mm | - | 766 W/m² | - |
| 1787507642 | 33.89° C | 45% | 1014.9 hPa | 0 mm | - | 767 W/m² | - |
| 1787507337 | 34.44° C | 45% | 1014.9 hPa | 0 mm | - | 768 W/m² | - |
| 1787507033 | 33.89° C | 47% | 1015 hPa | 0 mm | - | 770 W/m² | - |
| 1787506729 | 33.89° C | 48% | 1015.1 hPa | 0 mm | - | 779 W/m² | - |
| 1787506425 | 33.89° C | 48% | 1015.2 hPa | 0 mm | - | 768 W/m² | - |
| 1787506120 | 33.33° C | 48% | 1015.3 hPa | 0 mm | - | 764 W/m² | - |
| 1787505816 | 33.89° C | 47% | 1015.3 hPa | 0 mm | - | 765 W/m² | - |
| 1787505510 | 33.33° C | 50% | 1015.4 hPa | 0 mm | - | 759 W/m² | - |
| 1787505206 | 33.33° C | 50% | 1015.4 hPa | 0 mm | - | 757 W/m² | - |
| 1787504905 | 32.78° C | 51% | 1015.5 hPa | 0 mm | - | 757 W/m² | - |
| 1787504601 | 32.78° C | 49% | 1015.8 hPa | 0 mm | - | 752 W/m² | - |
| 1787504297 | 33.33° C | 50% | 1015.6 hPa | 0 mm | - | 151 W/m² | - |
| 1787503992 | 32.78° C | 49% | 1015.6 hPa | 0 mm | - | 749 W/m² | - |
| 1787503692 | 32.78° C | 51% | 1015.8 hPa | 0 mm | - | 736 W/m² | - |
| 1787503389 | 32.78° C | 52% | 1015.9 hPa | 0 mm | - | 727 W/m² | - |
| 1787503084 | 32.78° C | 53% | 1015.9 hPa | 0 mm | - | 729 W/m² | - |
| 1787502780 | 32.78° C | 51% | 1016.1 hPa | 0 mm | - | 714 W/m² | - |
* Rain latest hour (hover to see other rain measurements)
** Current wind speed in m/s (hover to see current wind gust speed)